Home > Weather > Dayton > Past weeks

Flag for USA Past Weather in Dayton, Ohio, USA — Yesterday and Last 2 Weeks

Now
84 °F

Sunny.


Feels Like: 89 °F
Forecast: 72 / 87 °F
Wind: 6 mph from Northeast

Location: Dayton / Wright-Patterson Air Force Base

Current Time: Aug 29, 2016 at 2:03:38 PM

Latest Report: Aug 29, 2016 at 12:58 PM


Visibility: 10 mi

Pressure: 30.23 "Hg

Humidity: 63%

Dew Point: 70 °F

Location of DaytonLocation

Past Weather in Dayton — Graph

°F

Dayton Temperature Yesterday

Maximum temperature yesterday: 90 °F (at 4:58 PM)
Minimum temperature yesterday: 69 °F (at 5:58 AM)
Average temperature yesterday: 78 °F

High & Low Weather Summary for the Past Weeks

 TemperatureHumidityPressure
High90 °F (Aug 28, 4:58 PM)100% (Aug 14, 12:58 PM)30.31 "Hg (Aug 14, 12:58 PM)
Low56 °F (Aug 22, 5:58 AM)37% (Aug 22, 4:58 PM)29.71 "Hg (Aug 20, 7:58 PM)
Average75 °F82%30.08 "Hg
* Reported Aug 14 12:58 PM — Aug 29 12:58 PM, Dayton, Weather by CustomWeather, © 2016

Note: Actual official high and low records may vary slightly from our data, if they occured in-between our weather recording intervals... More about our weather records

Advertising

Dayton Weather History for the Previous 24 Hours

Scroll right to see more
 ConditionsComfort  
Time TempWeatherWind HumidityBarometerVisibility
12:58 PM
Mon, Aug 29
84 °FSunny.6 mph63%30.23 "Hg10 mi
11:58 AM83 °FSunny.7 mph64%30.23 "Hg10 mi
10:58 AM80 °FSunny.7 mph74%30.23 "Hg10 mi
9:58 AM76 °FSunny.5 mph84%30.23 "Hg10 mi
8:58 AM72 °FPassing clouds.5 mph90%30.23 "Hg10 mi
7:58 AM69 °FClear.2 mph100%30.22 "Hg10 mi
6:58 AM66 °FPassing clouds.No wind100%30.20 "Hg10 mi
5:58 AM67 °FPassing clouds.3 mph100%30.19 "Hg10 mi
4:58 AM68 °FClear.2 mph98%30.19 "Hg10 mi
3:58 AM68 °FPassing clouds.1 mph99%30.17 "Hg10 mi
2:58 AM68 °FPassing clouds.3 mph98%30.18 "Hg10 mi
1:58 AM70 °FPassing clouds.2 mph96%30.19 "Hg10 mi
12:58 AM70 °FPassing clouds.8 mph98%30.20 "Hg10 mi
11:58 PM
Sun, Aug 28
70 °FPassing clouds.2 mph96%30.17 "Hg10 mi
10:58 PM71 °FMostly cloudy.3 mph95%30.20 "Hg10 mi
9:58 PM71 °FLight rain. Overcast.1 mph96%30.26 "Hg10 mi
8:58 PM72 °FThunderstorms. Fog.16 mph88%30.18 "Hg3 mi
7:58 PM84 °FThundershowers. Partly sunny.14 mph73%30.15 "Hg10 mi
6:58 PM88 °FThundershowers. Scattered clouds.6 mph56%30.14 "Hg10 mi
5:58 PM89 °FPassing clouds.3 mph53%30.13 "Hg10 mi
4:58 PM90 °FSunny.1 mph53%30.15 "Hg10 mi
3:58 PM89 °FSunny.5 mph57%30.14 "Hg10 mi
2:58 PM88 °FPassing clouds.1 mph58%30.17 "Hg10 mi
Weather by CustomWeather, © 2016

See weather overviewHow to use our weather pages